Location: *
(48.9416°S, 177.0099°W)
Time: 15:08:30
(UTC+00:00)

Daily predictions for brighter satellites

Satellite Brightness Start Highest point End
(mag) Time Altitude Azimuth Time Altitude Azimuth Time Altitude Azimuth
CZ-4C R/B 3.8 15:19:56 44° SE 15:19:56 44° SE 15:24:21 10° SE
USA 215 4.1 15:35:31 10° ESE 15:40:05 43° SSE 15:40:05 43° SSE
COSMOS 2455 4.0 15:50:23 38° SE 15:50:23 38° SE 15:54:01 10° SE
CENTAUR R/B 3.7 15:57:31 28° N 16:01:22 46° ENE 16:07:58 10° SE
BREEZE-M DEB (TANK) 4.5 16:09:08 41° N 16:09:08 41° N 16:18:32 10° NE
Cosmos 1553 Rocket 4.3 16:09:14 51° SSE 16:10:32 63° ESE 16:16:35 10° NNE
Cosmos 2237 Rocket 2.4 16:22:01 69° ESE 16:22:01 69° ESE 16:27:36 10° NE
Cosmos 2227 Rocket 4.2 16:19:55 10° NNE 16:24:34 27° ENE 16:29:16 10° SE
Meteor 2-10 Rocket 4.1 16:24:35 37° S 16:26:57 66° ESE 16:32:46 10° NNE
Cosmos 1461 4.5 16:34:26 31° SE 16:34:26 31° SE 16:36:48 10° SE
SL-16 R/B 3.4 16:26:38 10° S 16:30:28 36° S 16:30:28 36° S
SL-16 R/B 3.6 16:36:09 21° S 16:39:20 35° SE 16:44:33 10° ENE
Cosmos 2297 Rocket 2.6 16:37:06 32° N 16:39:44 63° ENE 16:45:24 10° SSE
Cosmos 1980 3.5 16:41:22 84° NW 16:41:22 84° NW 16:47:00 10° NNE
Cosmos 1818 3.4 16:48:06 80° SW 16:48:26 89° SE 16:53:50 10° NE
Meteor 1-13 Rocket 4.2 16:49:49 60° NW 16:50:47 71° WSW 16:56:50 10° S
Cosmos 1733 Rocket 3.5 16:54:09 36° SSE 16:55:47 62° ESE 17:00:08 10° NNE
Meteor 1-22 Rocket 4.2 16:57:34 54° NW 16:57:34 54° NW 17:01:57 10° N
DMSP B5D2-2 4.0 16:53:49 10° S 16:59:11 71° WSW 17:00:32 50° NW
Spot 4 Rocket 3.9 16:55:44 10° N 17:00:55 76° WNW 17:02:22 48° SSW
CORIOLIS 4.2 16:55:56 10° NNE 17:01:25 79° ESE 17:06:58 10° SSW
Cosmos 1707 Rocket 4.0 16:58:49 10° N 17:03:13 62° E 17:07:43 10° SSE
ISS -1.2 17:02:07 15° NNE 17:03:24 18° NE 17:05:51 10° E
NOSS 3-3 (C) 4.1 17:02:18 32° SSW 17:05:23 68° SE 17:10:57 10° NE
BREEZE-M DEB (TANK) 2.9 17:05:13 39° N 17:05:28 40° NNE 17:07:57 10° E
Cosmos 304 Rocket 3.8 17:03:09 24° NNW 17:06:06 81° ENE 17:10:57 10° SSE
CZ-4C R/B 3.3 17:05:02 39° WSW 17:06:19 42° SSW 17:12:34 10° SE
SJ-7 4.2 17:20:17 10° N 17:24:11 63° WNW 17:24:27 61° W
USA 215 3.9 17:18:08 10° ESE 17:24:19 44° S 17:27:26 27° SW
SL-08 ROCKET BODY 4.4 17:18:12 10° N 17:24:25 86° WSW 17:30:45 10° S
Cosmos 1354 Rocket 4.4 17:21:20 10° N 17:26:35 66° ENE 17:31:55 10° SSE
Cosmos 2228 Rocket 3.0 17:26:06 10° NNW 17:30:34 66° WSW 17:35:10 10° S
SMAP 3.1 17:26:15 10° N 17:30:52 58° W 17:33:40 23° SSW
CZ-2C R/B 3.0 17:27:28 10° NNE 17:31:02 62° ESE 17:33:57 15° S
Cosmos 1455 2.4 17:30:02 16° S 17:32:47 61° ESE 17:36:15 10° NNE
Okean 3 3.3 17:28:47 10° N 17:32:55 89° E 17:37:08 10° S
Cosmos 2266 Rocket 3.9 17:28:18 10° NNW 17:34:24 71° WSW 17:40:40 10° S
COSMOS 2455 3.7 17:33:32 29° SW 17:34:28 30° SW 17:39:46 10° SSE
Meteor 1-16 Rocket 4.2 17:28:50 10° SSW 17:34:29 84° W 17:40:16 10° N
Cosmos 2219 4.2 17:29:40 10° N 17:35:14 51° ENE 17:40:50 10° SE
Cosmos 1315 Rocket 2.6 17:33:04 10° NNW 17:36:59 72° WSW 17:41:00 10° S
Genesis I 2.9 17:37:59 43° SSW 17:39:00 77° SE 17:42:26 10° NE
ADEOS Rocket 3.0 17:34:55 10° NNE 17:40:46 85° ESE 17:47:19 10° SSW
Meteor 1-21 4.2 17:35:44 10° NNW 17:41:22 69° WSW 17:47:10 10° S
Cosmos 773 Rocket 4.3 17:41:00 29° SW 17:43:06 42° WNW 17:47:56 10° N
Cosmos 1953 2.2 17:40:16 10° S 17:44:17 85° E 17:48:11 10° N
USA 306 2.7 17:43:36 29° NW 17:45:04 61° NNE 17:48:40 10° ESE
Cosmos 1908 Rocket 3.9 17:41:02 10° S 17:45:34 67° ESE 17:49:59 10° NNE
Cosmos 371 Rocket 3.7 17:44:25 24° WNW 17:46:48 41° WSW 17:51:24 10° SSE
USA 308 3.4 17:47:51 21° E 17:47:51 21° E 17:48:48 10° ENE
Cosmos 1867 4.4 17:43:55 10° NNW 17:49:09 53° ENE 17:54:25 10° SE
ATLAS CENTAUR R/B 3.7 17:47:25 10° S 17:49:31 14° SSE 17:51:34 10° SE
AQUARIUS 4.3 17:45:50 10° N 17:50:12 50° W 17:54:10 13° SSW
CENTAUR R/B 2.9 17:44:47 12° WNW 17:52:02 58° SW 17:58:29 10° SE
Helios 1B rocket 2.4 17:49:07 10° NNE 17:53:03 80° ESE 17:57:03 10° SSW
NOSS 3-3 (A) 3.9 17:48:51 20° SW 17:53:18 65° NW 17:58:45 10° NNE
Cosmos 2263 Rocket 2.9 17:54:31 10° N 18:00:07 58° ENE 18:05:46 10° SE
Cosmos 1943 4.1 17:56:44 10° SSW 18:02:19 47° SE 18:07:49 10° NE
Cosmos 1408 3.8 17:59:38 10° NNE 18:02:20 35° E 18:05:05 10° SSE
Cosmos 1900 4.2 17:57:29 10° NW 18:02:23 76° SW 18:07:26 10° SE
CZ-4 R/B 4.4 17:59:45 10° N 18:03:52 75° WNW 18:08:04 10° SSW
Cosmos 1503 Rocket 4.2 17:59:08 10° NW 18:04:20 51° WSW 18:09:37 10° SSE
NOAA 6 4.1 17:59:18 10° NNE 18:04:28 85° ESE 18:09:43 10° SSW
Cosmos 2237 Rocket 3.4 18:03:53 20° W 18:05:24 22° W 18:09:42 10° NNW
Meteor 1-31 Rocket 2.8 18:01:51 10° N 18:05:30 52° W 18:09:13 10° SSW
CZ-4B R/B 4.0 18:01:45 10° N 18:05:51 56° W 18:09:53 10° SSW
CZ-4B R/B 4.4 18:01:35 10° NE 18:06:11 46° ESE 18:10:54 10° S
SKYMED 2 3.6 18:03:10 10° SSE 18:07:38 86° ENE 18:12:02 10° NNW
Cosmos 2227 Rocket 2.3 18:02:38 10° NW 18:08:14 58° WSW 18:13:54 10° SSE
Cosmos 1538 Rocket 4.0 18:04:54 10° SSW 18:10:14 88° ESE 18:15:27 10° NNE
Cosmos 1461 4.3 18:09:54 19° SW 18:11:07 22° SSW 18:14:31 10° SSE
SL-16 R/B 4.1 18:12:12 10° SSW 18:15:02 13° SW 18:15:33 13° SW
Aureole 1 Rocket 4.4 18:12:53 10° N 18:17:31 44° ENE 18:21:14 10° SE
Landsat 7 4.0 18:13:32 10° NNE 18:18:16 75° ESE 18:23:04 10° S
IGS 5A 3.6 18:15:59 10° N 18:19:59 51° W 18:24:03 10° SSW
Okean 1-7 3.2 18:18:57 10° NNW 18:23:09 47° WSW 18:27:25 10° S
SL-16 R/B 2.5 18:18:08 10° SW 18:23:37 48° WNW 18:29:04 10° N
Cosmos 2297 Rocket 3.1 18:19:18 10° WNW 18:24:12 29° SW 18:29:09 10° SSE
Cosmos 1607 4.0 18:22:09 10° SW 18:28:24 90° SE 18:34:42 10° NE
Cosmos 2082 3.8 18:23:45 10° NNW 18:29:30 85° ENE 18:35:20 10° SSE
Cosmos 1703 Rocket 3.6 18:25:42 10° NNW 18:30:08 63° WSW 18:34:40 10° S
NOSS 3-2 (A) 4.2 18:22:54 10° WNW 18:31:28 55° SW 18:38:46 10° SE
Cosmos 923 Rocket 4.5 18:28:15 10° SSW 18:33:39 65° ESE 18:38:59 10° NNE
Resurs 01 Rocket 3.7 18:31:58 10° ENE 18:35:42 27° ESE 18:39:29 10° S
Resurs 1-3 4.3 18:32:04 10° NNE 18:36:22 58° ESE 18:40:44 10° S
USA 276 1.3 18:35:05 15° WSW 18:36:53 68° S 18:39:08 10° E
SAR-Lupe-2 3.6 18:33:37 10° N 18:37:12 62° WNW 18:40:51 10° SSW
BREEZE-M DEB 1.5 18:35:13 11° W 18:37:27 82° S 18:39:38 10° E
Okean O Rocket 4.0 18:34:10 10° ENE 18:37:30 21° ESE 18:40:52 10° SSE
CZ-3 R/B 4.5 18:35:56 10° WNW 18:38:45 11° NW 18:41:03 10° NW
ISS -3.5 18:36:17 10° WNW 18:39:44 78° NNE 18:43:13 10° ESE
Cosmos 1244 Rocket 4.5 18:35:35 10° NNW 18:41:43 67° WSW 18:47:58 10° S
USA 186 4.0 18:39:27 10° NE 18:42:14 26° ESE 18:45:06 10° S
BREEZE-M DEB (TANK) 4.1 18:39:10 10° W 18:43:14 89° SSW 18:58:22 10° E
Cosmos 292 Rocket 3.7 18:39:29 10° NNW 18:44:15 84° WSW 18:49:05 10° SSE
Aureole 3 4.4 18:43:42 10° WNW 18:45:31 15° WSW 18:47:20 10° SSW
Cosmos 990 Rocket 4.1 18:44:21 10° NW 18:49:32 59° WSW 18:54:46 10° SSE
Meteor PRIRODA 3.4 18:47:47 10° NNE 18:51:12 84° WNW 18:54:40 10° SSW
CZ-4 R/B 2.1 18:47:28 10° NNE 18:51:14 54° ESE 18:55:07 10° S
Cosmos 405 Rocket 2.6 18:47:52 10° SSW 18:51:35 81° W 18:55:17 10° N
YAOGAN 1 2.8 18:47:50 10° N 18:52:03 50° W 18:56:20 10° SSW
SPOT 1/Viking Rocket 3.9 18:46:55 10° NNE 18:52:06 71° ESE 18:57:20 10° S
Cosmos 1300 Rocket 3.6 18:48:07 10° SSW 18:52:28 57° W 18:56:43 10° N
CZ-4B DEB 4.5 18:47:39 10° NNE 18:53:11 78° ESE 18:58:45 10° SSW
CZ-4B R/B 3.2 18:50:48 10° NNE 18:54:36 70° ESE 18:58:41 10° S
COSMO-SKYMED 1 3.3 18:51:36 10° S 18:55:35 34° WSW 18:59:33 10° NW
CZ-4C R/B 3.9 18:50:53 10° WSW 18:56:28 23° S 19:01:11 10° SE
Cosmos 1937 Rocket 4.2 18:51:34 10° N 18:56:46 61° ENE 19:02:03 10° SSE
NOSS 3-2 (C) 4.2 18:56:31 10° WNW 19:05:15 61° SW 19:12:40 10° SE
